Location: Unspecified
(0.0000°N, 0.0000°E)
Time: 19:38:16
(UTC+00:00)

FEDSAT - Visible Passes

Search period start: 18 May 2026 00:00
Search period end: 28 May 2026 00:00
Orbit: 785 x 800 km, 98.9° (Epoch: 18 May)

Date Brightness Start Highest point End Pass type
(mag) Time Alt. Az. Time Alt. Az. Time Alt. Az.
18 May 12.0 02:39:49 10° ENE 02:40:08 11° ENE 02:40:08 11° ENE visible
18 May 10.4 04:18:07 10° NNW 04:20:55 24° NW 04:20:55 24° NW visible
19 May 10.0 03:48:41 10° N 03:51:50 37° N 03:51:50 37° N visible
20 May 10.6 03:20:01 10° NNE 03:22:44 31° NE 03:22:44 31° NE visible
21 May 11.6 02:52:12 10° NE 02:53:39 17° ENE 02:53:39 17° ENE visible
21 May 10.6 04:31:58 10° NNW 04:34:26 18° WNW 04:34:26 18° WNW visible
22 May 10.0 04:02:04 10° N 04:05:20 33° NNW 04:05:20 33° NNW visible
23 May 10.2 03:33:05 10° NNE 03:36:13 38° NNE 03:36:13 38° NNE visible
24 May 11.1 03:04:51 10° NE 03:07:08 23° NE 03:07:08 23° NE visible
24 May 10.9 04:46:18 10° NW 04:47:54 13° WNW 04:47:54 13° WNW visible
25 May 12.0 02:37:44 10° ENE 02:38:02 11° ENE 02:38:02 11° ENE visible
25 May 10.2 04:15:37 10° NNW 04:18:48 27° NW 04:18:48 27° NW visible
26 May 9.9 03:46:17 10° N 03:49:42 41° N 03:49:42 41° N visible
27 May 10.6 03:17:42 10° NNE 03:20:35 32° NE 03:20:35 32° NE visible
